When you browse on this site, cookies collect data to enhance your experience and personalize the content and advertising you see.
Visit our Privacy Policy to learn more. By continuing to use the site, you agree to this use of cookies and data.
EN

Hourly Weather São Paulo

Today, 13 August, Thursday

Time Temperature Precipitation Wind Pressure Humidity
00:00 +22°C° 0 mm 1 mps 698 mmHg 54%
01:00 +21°C° 0 mm 2 mps 698 mmHg 53%
02:00 +21°C° 0 mm 2 mps 698 mmHg 53%
03:00 +21°C° 0 mm 2 mps 697 mmHg 53%
04:00 +20°C° 0 mm 2 mps 697 mmHg 54%
05:00 +20°C° 0 mm 3 mps 697 mmHg 54%
06:00 +20°C° 0 mm 3 mps 698 mmHg 55%
07:00 +21°C° 0 mm 3 mps 698 mmHg 52%
08:00 +24°C° 0 mm 3 mps 699 mmHg 49%
09:00 +25°C° 0 mm 2 mps 700 mmHg 45%
10:00 +27°C° 0 mm 3 mps 700 mmHg 40%
11:00 +29°C° 0 mm 3 mps 700 mmHg 35%
12:00 +32°C° 0 mm 4 mps 700 mmHg 30%
13:00 +32°C° 0 mm 4 mps 700 mmHg 29%
14:00 +32°C° 0 mm 4 mps 699 mmHg 29%
15:00 +33°C° 0 mm 3 mps 698 mmHg 28%
16:00 +31°C° 0 mm 3 mps 698 mmHg 31%
17:00 +29°C° 0 mm 2 mps 698 mmHg 34%
18:00 +28°C° 0 mm 1 mps 698 mmHg 37%
19:00 +27°C° 0 mm 1 mps 698 mmHg 39%
20:00 +26°C° 0 mm 2 mps 698 mmHg 41%
21:00 +26°C° 0 mm 2 mps 698 mmHg 43%
22:00 +25°C° 0 mm 2 mps 698 mmHg 45%
23:00 +25°C° 0 mm 2 mps 697 mmHg 47%

Tomorrow, 14 August, Friday

Time Temperature Precipitation Wind Pressure Humidity
00:00 +24°C° 0 mm 3 mps 697 mmHg 49%
01:00 +24°C° 0 mm 2 mps 697 mmHg 49%
02:00 +23°C° 0 mm 2 mps 697 mmHg 50%
03:00 +23°C° 0 mm 2 mps 697 mmHg 50%
04:00 +23°C° 0 mm 2 mps 697 mmHg 50%
05:00 +21°C° 0 mm 2 mps 697 mmHg 51%
06:00 +21°C° 0 mm 2 mps 697 mmHg 51%
07:00 +23°C° 0 mm 2 mps 698 mmHg 48%
08:00 +25°C° 0 mm 1 mps 699 mmHg 45%
09:00 +26°C° 0 mm 1 mps 699 mmHg 42%
10:00 +28°C° 0 mm 1 mps 699 mmHg 37%
11:00 +30°C° 0 mm 2 mps 699 mmHg 33%
12:00 +32°C° 0 mm 2 mps 699 mmHg 28%
13:00 +32°C° 0 mm 2 mps 699 mmHg 28%
14:00 +32°C° 0 mm 2 mps 698 mmHg 29%
15:00 +32°C° 0 mm 2 mps 697 mmHg 29%
16:00 +31°C° 0 mm 2 mps 697 mmHg 35%
17:00 +29°C° 0 mm 1 mps 697 mmHg 41%
18:00 +28°C° 0 mm 1 mps 697 mmHg 47%
19:00 +27°C° 0 mm 1 mps 697 mmHg 48%
20:00 +27°C° 0 mm 2 mps 697 mmHg 49%
21:00 +26°C° 0 mm 2 mps 697 mmHg 50%
22:00 +26°C° 0 mm 2 mps 697 mmHg 50%
23:00 +25°C° 0 mm 2 mps 697 mmHg 50%

Day after tomorrow, 15 August, Saturday

Time Temperature Precipitation Wind Pressure Humidity
00:00 +25°C° 0 mm 2 mps 697 mmHg 50%
01:00 +24°C° 0 mm 3 mps 696 mmHg 50%
02:00 +24°C° 0 mm 3 mps 696 mmHg 50%
03:00 +22°C° 0 mm 3 mps 695 mmHg 50%
04:00 +23°C° 0 mm 4 mps 695 mmHg 50%
05:00 +23°C° 0 mm 4 mps 695 mmHg 50%
06:00 +23°C° 0 mm 5 mps 696 mmHg 50%
07:00 +25°C° 0 mm 5 mps 696 mmHg 46%
08:00 +27°C° 0 mm 5 mps 697 mmHg 42%
09:00 +28°C° 0 mm 5 mps 698 mmHg 38%
10:00 +29°C° 0.1 mm 5 mps 698 mmHg 36%
11:00 +30°C° 0.1 mm 6 mps 698 mmHg 34%
12:00 +30°C° 0.1 mm 7 mps 698 mmHg 32%
13:00 +30°C° 0 mm 6 mps 697 mmHg 33%
14:00 +30°C° 0 mm 5 mps 696 mmHg 34%
15:00 +30°C° 0 mm 4 mps 696 mmHg 35%
16:00 +29°C° 0 mm 3 mps 696 mmHg 37%
17:00 +28°C° 0 mm 2 mps 696 mmHg 39%
18:00 +28°C° 0 mm 1 mps 696 mmHg 41%
19:00 +27°C° 0 mm 1 mps 696 mmHg 44%
20:00 +26°C° 0 mm 1 mps 696 mmHg 47%
21:00 +25°C° 0 mm 1 mps 696 mmHg 50%
22:00 +25°C° 0.1 mm 2 mps 696 mmHg 52%
23:00 +24°C° 0.1 mm 2 mps 696 mmHg 55%

16 August, Sunday

Time Temperature Precipitation Wind Pressure Humidity
00:00 +22°C° 0.1 mm 3 mps 696 mmHg 58%
01:00 +23°C° 0.3 mm 2 mps 695 mmHg 61%
02:00 +23°C° 0.3 mm 2 mps 695 mmHg 64%
03:00 +21°C° 0.3 mm 2 mps 695 mmHg 67%
04:00 +21°C° 0.4 mm 3 mps 695 mmHg 71%
05:00 +20°C° 0.4 mm 3 mps 695 mmHg 76%
06:00 +19°C° 0.4 mm 4 mps 696 mmHg 81%
07:00 +20°C° 0.1 mm 3 mps 696 mmHg 80%
08:00 +20°C° 0.1 mm 3 mps 696 mmHg 79%
09:00 +20°C° 0.1 mm 2 mps 697 mmHg 78%
10:00 +21°C° 0 mm 2 mps 697 mmHg 73%
11:00 +23°C° 0 mm 2 mps 697 mmHg 67%
12:00 +25°C° 0 mm 2 mps 697 mmHg 61%
13:00 +25°C° 0.2 mm 3 mps 696 mmHg 61%
14:00 +25°C° 0.2 mm 3 mps 696 mmHg 61%
15:00 +25°C° 0.2 mm 4 mps 695 mmHg 61%
16:00 +23°C° 0.6 mm 4 mps 695 mmHg 68%
17:00 +21°C° 0.6 mm 4 mps 696 mmHg 75%
18:00 +20°C° 0.6 mm 3 mps 696 mmHg 83%
19:00 +19°C° 0.8 mm 3 mps 696 mmHg 83%
20:00 +19°C° 0.8 mm 3 mps 696 mmHg 83%
21:00 +19°C° 0.8 mm 3 mps 696 mmHg 83%
22:00 +19°C° 0.2 mm 3 mps 696 mmHg 82%
23:00 +19°C° 0.2 mm 3 mps 696 mmHg 82%

17 August, Monday

Time Temperature Precipitation Wind Pressure Humidity
00:00 +19°C° 0.2 mm 3 mps 696 mmHg 81%
01:00 +19°C° 0.6 mm 3 mps 696 mmHg 83%
02:00 +19°C° 0.6 mm 2 mps 696 mmHg 85%
03:00 +20°C° 0.6 mm 1 mps 696 mmHg 86%
04:00 +19°C° 2.7 mm 2 mps 696 mmHg 87%
05:00 +19°C° 2.7 mm 2 mps 696 mmHg 88%
06:00 +19°C° 2.7 mm 2 mps 696 mmHg 89%
07:00 +19°C° 2.4 mm 3 mps 696 mmHg 86%
08:00 +19°C° 2.4 mm 3 mps 697 mmHg 84%
09:00 +19°C° 2.4 mm 3 mps 697 mmHg 82%
10:00 +19°C° 2.3 mm 3 mps 697 mmHg 81%
11:00 +19°C° 2.3 mm 3 mps 697 mmHg 81%
12:00 +19°C° 2.3 mm 2 mps 697 mmHg 81%
13:00 +19°C° 2.3 mm 2 mps 696 mmHg 82%
14:00 +19°C° 2.3 mm 2 mps 696 mmHg 84%
15:00 +18°C° 2.3 mm 2 mps 695 mmHg 86%
16:00 +18°C° 2.6 mm 2 mps 696 mmHg 87%
17:00 +18°C° 2.6 mm 2 mps 696 mmHg 88%
18:00 +18°C° 2.6 mm 2 mps 696 mmHg 89%
19:00 +18°C° 2.6 mm 2 mps 696 mmHg 90%
20:00 +18°C° 2.6 mm 2 mps 696 mmHg 91%
21:00 +18°C° 2.6 mm 2 mps 696 mmHg 91%
22:00 +19°C° 2.9 mm 1 mps 696 mmHg 92%
23:00 +19°C° 2.9 mm 1 mps 696 mmHg 93%

18 August, Tuesday

Time Temperature Precipitation Wind Pressure Humidity
00:00 +19°C° 2.9 mm 1 mps 696 mmHg 94%
01:00 +19°C° 4.2 mm 1 mps 696 mmHg 94%
02:00 +19°C° 4.2 mm 1 mps 696 mmHg 93%
03:00 +19°C° 4.2 mm 1 mps 696 mmHg 93%
04:00 +18°C° 0.7 mm 2 mps 696 mmHg 92%
05:00 +18°C° 0.7 mm 2 mps 696 mmHg 91%
06:00 +18°C° 0.7 mm 2 mps 696 mmHg 89%
07:00 +19°C° 0.2 mm 3 mps 696 mmHg 86%
08:00 +19°C° 0.2 mm 3 mps 697 mmHg 83%
09:00 +20°C° 0.2 mm 4 mps 697 mmHg 80%
10:00 +20°C° 0.9 mm 4 mps 697 mmHg 79%
11:00 +20°C° 0.9 mm 4 mps 696 mmHg 78%
12:00 +20°C° 0.9 mm 4 mps 696 mmHg 78%
13:00 +20°C° 0.8 mm 3 mps 695 mmHg 79%
14:00 +20°C° 0.8 mm 2 mps 695 mmHg 81%
15:00 +20°C° 0.8 mm 2 mps 694 mmHg 82%
16:00 +20°C° 1.5 mm 3 mps 695 mmHg 83%
17:00 +19°C° 1.5 mm 4 mps 695 mmHg 84%
18:00 +19°C° 1.5 mm 5 mps 695 mmHg 85%
19:00 +19°C° 0.7 mm 4 mps 695 mmHg 85%
20:00 +19°C° 0.7 mm 4 mps 696 mmHg 84%
21:00 +19°C° 0.7 mm 4 mps 696 mmHg 84%
22:00 +19°C° 1.2 mm 3 mps 696 mmHg 85%
23:00 +19°C° 1.2 mm 3 mps 696 mmHg 85%
Show more